www.pogodaiklimat.ru

Погода и климат >> Архив погоды >> Украина >> Великая Александровка


ПОГОДА в Великой Александровке

  • Прогноз погоды в Великой Александровке
  • Монитор погоды в Великой Александровке

АРХИВ ПОГОДЫ в Великой Александровке

Время (UTC), дата Ветер
(напр.,м/с)
 
Видим.   Явления Облачность Т
(С)
Тd
(С)
f
(%)
Тe
(С)
Тes
(С)
Комфортность P
(гПа)
Po
(гПа)
Тmin
(С)
Tmax
(С)
R
(мм)
R24
(мм)
S
(см)
18 18.06 СВ 1 20 км 1/0
[Ci fib]
+27.3 +16.7 52 +31 +31 душно 1013.0 1006.4 +32.7
21 18.06 штиль 0 20 км ясно +22.8 +16.8 69 +28 +28 душно 1014.2 1007.5
00 19.06 С 1 20 км ясно +21.2 +17.3 78 +25 +25 комфорт 1014.3 1007.6
03 19.06 СВ 1 10 км ясно +20.6 +17.7 83 +25 +26 комфорт 1013.7 1007.0
06 19.06 СВ 1 20 км ясно +26.3 +18.6 63 +31 +42 душно 1013.8 1007.2 +20.5
09 19.06 СВ 2 20 км 3/3 600 м
[Cu hum]
+30.8 +16.5 42 +34 +47 очень
душно
1013.4 1006.9
12 19.06 СВ 1 20 км 6/6 600 м
[Cu med, cong]
+32.8 +15.5 35 +35 +42 душно 1012.4 1005.9
15 19.06 СВ 1 20 км 3/1 600 м
[Cu med, cong Ci fib]
+31.3 +14.4 36 +33 +37 жарко 1011.5 1005.0
18 19.06 СВ 2 20 км 1/0
[Ci fib]
+28.0 +15.4 46 +31 +31 душно 1012.0 1005.4 +33.1
21 19.06 СВ 1 20 км ясно +24.2 +15.2 57 +27 +27 жарко 1012.6 1005.9
00 20.06 С 1 20 км ясно +21.0 +16.0 73 +26 +26 душно 1012.0 1005.3
03 20.06 СВ 1 20 км ясно +20.1 +16.1 78 +24 +25 комфорт 1012.4 1005.7
06 20.06 В 1 20 км ясно +27.7 +19.4 61 +33 +44 очень
душно
1012.5 1005.9 +19.2
09 20.06 В 2 20 км 3/3 600 м
[Cu med, cong]
+31.3 +15.1 38 +34 +46 душно 1012.1 1005.6
12 20.06 В 1 20 км 4/4 600 м
[Cu med, cong]
+33.1 +13.2 30 +34 +44 очень
жарко
1011.6 1005.1
15 20.06 В 2 20 км ясно +32.6 +12.7 30 +33 +37 жарко 1011.1 1004.6
18 20.06 В 1 20 км ясно +29.1 +14.4 41 +31 +31 жарко 1011.6 1005.1 +33.7
21 20.06 В 2 20 км 6/0
[Ac trans]
+24.7 +17.1 63 +29 +29 душно 1012.7 1006.1
00 21.06 штиль 0 20 км 8/0
[Ac trans]
+23.0 +18.0 73 +28 +28 душно 1013.5 1006.8
03 21.06 штиль 0 20 км 6/0
[Ac trans]
+21.4 +17.0 76 +25 +26 комфорт 1014.2 1007.5
06 21.06 штиль 0 20 км ясно +27.0 +15.1 48 +30 +42 душно 1014.3 1007.7 +21.3
09 21.06 В 2 20 км 6/6 600 м
[Cu hum]
+32.7 +10.3 25 +32 +39 жарко 1013.9 1007.4
12 21.06 ЮВ 2 20 км 6/3 600 м
[Cu hum Ci fib]
+33.2 +10.1 24 +32 +42 жарко 1013.6 1007.1
15 21.06 СВ 2 20 км 3/3 600 м
[Cu hum]
+33.4 +10.4 24 +33 +35 жарко 1012.5 1006.0
18 21.06 штиль 0 20 км 8/8 600 м
[Cb calv]
+29.8 +15.3 41 +32 +32 душно 1012.7 1006.2 +34.5
21 21.06 штиль 0 20 км ясно +24.9 +15.7 57 +28 +28 жарко 1013.5 1006.9
00 22.06 штиль 0 20 км 3/3 600 м
[Sc]
+22.2 +16.6 71 +27 +27 душно 1014.1 1007.4
03 22.06 штиль 0 20 км ясно +20.0 +16.0 78 +22 +23 комфорт 1014.3 1007.5
06 22.06 С 1 20 км ясно +30.5 +18.0 47 +35 +45 очень
душно
1014.5 1008.0 +19.8
09 22.06 СВ 2 20 км 5/3 600 м
[Cb calv Ac cast Cc]
+33.8 +10.3 24 +33 +44 жарко 1014.4 1007.9
12 22.06 В 3 20 км 8/3 600 м
[Cb calv Ac trans Ci fib]
+35.0 +9.1 21 +34 +39 очень
жарко
1013.7 1007.3
15 22.06 В 3 20 км 8/3 600 м
[Cb cap Ac trans Ci]
+34.8 +8.4 20 +33 +35 жарко 1013.2 1006.8
18 22.06 Ю 1 20 км 9/4 600 м
[Cb calv Ac und Ci]
+27.7 +15.0 46 +30 +30 жарко 1014.8 1008.2 +36.1
21 22.06 Ю 2 20 км 8/0
[Ac und]
+25.4 +14.1 50 +28 +28 жарко 1016.1 1009.4
00 23.06 штиль 0 20 км {ливн. осадки} 8/8 600 м
[Sc]
+22.6 +17.4 72 +27 +27 душно 1015.0 1008.3
03 23.06 штиль 0 20 км 9/0
[Ac und Ci]
+23.9 +14.0 54 +26 +27 жарко 1014.2 1007.5
06 23.06 С 1 20 км 10/4 600 м
[Cb calv Ac und]
+25.8 +13.8 47 +28 +30 жарко 1014.2 1007.6 +22.5 0.0
09 23.06 В 2 20 км слаб. ливневой дождь 10/4 600 м
[Cb cap Ac und]
+26.4 +15.8 52 +30 +33 душно 1014.8 1008.2
12 23.06 В 2 20 км слаб. ливневой дождь 10/8 600 м
[Cb cap Ac und]
+27.2 +15.2 48 +30 +31 душно 1014.4 1007.8
15 23.06 С 1 20 км слаб. ливневой дождь 10/8 600 м
[Cb cap Ac und]
+27.9 +17.1 52 +32 +32 душно 1013.5 1006.9
18 23.06 СЗ 1 20 км в посл. час гроза {ливн. осадки} 10/9 600 м
[Cb cap Ci fib]
+22.4 +18.3 78 +28 +28 душно 1013.9 1007.2 +28.5 1
21 23.06 штиль 0 10 км зарница 4/1 600 м
[Cb cap Ci fib]
+20.2 +18.6 91 +23 +23 комфорт 1013.9 1007.2
00 24.06 СВ 2 20 км {ливн. осадки} 9/6 600 м
[Cb calv Ci fib]
+21.3 +17.4 78 +25 +25 комфорт 1013.3 1006.6
03 24.06 штиль 0 20 км 9/8 600 м
[Cb cap Ac trans]
+21.3 +16.7 75 +25 +25 комфорт 1013.9 1007.2
06 24.06 С 3 20 км в посл. час ливневой дождь 10/10 600 м
[Cb cap]
+24.3 +14.9 56 +27 +27 жарко 1014.7 1008.0 +20.0 0.0
09 24.06 С 3 20 км 10/10 600 м
[Cb calv]
+25.6 +16.7 58 +29 +29 душно 1014.4 1007.8
12 24.06 СВ 6 20 км 9/8 600 м
[Sc Ac trans]
+28.7 +15.9 46 +32 +33 душно 1014.7 1008.1
15 24.06 СВ 2 20 км в посл. час ливневой дождь 9/8 600 м
[Cb cap Ac cast Cc]
+27.3 +18.2 58 +32 +33 очень
душно
1014.3 1007.7
18 24.06 С 1 20 км в посл. час ливневой дождь 10/8 600 м
[Cb cap Ac und]
+25.7 +18.5 64 +30 +30 душно 1015.0 1008.4 +29.4 0.0
21 24.06 СВ 2 20 км 10/6 600 м
[Cb calv Ac und]
+24.0 +17.4 67 +28 +28 душно 1015.9 1009.2
00 25.06 СВ 1 20 км 9/3 600 м
[Cb calv Ac trans Ci fib]
+22.8 +17.1 70 +28 +28 душно 1016.5 1009.8
03 25.06 штиль 0 20 км 3/0
[Ac lent]
+21.0 +16.5 75 +24 +25 комфорт 1017.3 1010.5
06 25.06 СВ 3 20 км 6/1 600 м
[Sc Ac trans Ci fib]
+26.4 +17.3 57 +30 +35 душно 1018.3 1011.7 +19.9
09 25.06 СВ 3 20 км 8/1 600 м
[Sc Ac trans Ci fib]
+31.5 +13.5 33 +33 +41 жарко 1018.7 1012.2
12 25.06 СВ 3 20 км 8/6 600 м
[Cb calv Ci fib]
+33.5 +15.4 34 +36 +40 очень
душно
1018.7 1012.2
15 25.06 ЮВ 2 20 км гроза, ливневой дождь 9/9 600 м
[Cb cap]
+22.8 +19.0 79 +29 +29 очень
душно
1020.2 1013.5

 

Местоположение метеостанции Великая Александровка (Херсонская область, Украина): широта 47.32 долгота 33.28 высота над уровнем моря 56 м.

В архиве по умолчанию представлена погода в Великой Александровке за последнюю неделю. Архивные данные за месяц целиком и за предыдущие месяцы, начиная с января 2011 года, Вы можете получить, выбрав интересующий диапазон дат из раскрывающегося списка и нажав кнопку "Ввод!".


*Определитесь, кто Вы:
робот инопланетянин человек

Внимание! Время в таблицах - всемирное. Для получения местного времени необходимо прибавить поправку, которая равна 2 ч.

Смотрите также архив погоды в соседних городах и на ближайших метеорологических станциях:

Погода в Новой Каховке (Херсонская область, Украина) (60 км)
Погода в Баштанке (Николаевская область, Украина) (62 км)
Погода в Кривом Роге (Днепропетровская область, Украина) (79 км)
Погода в Никополе (Днепропетровская область, Украина) (93 км)
Погода в Херсоне (Херсонская область, Украина) (94 км)
Погода в Долинской (Кировоградская область, Украина) (97 км)
Погода в Нижних Серогозах (Херсонская область, Украина) (100 км)
Погода в Лошкаревке (Днепропетровская область, Украина) (102 км)
Погода в Николаеве (Николаевская область, Украина) (106 км)
Погода в Аскании-Нове (Херсонская область, Украина) (107 км)

Пояснения к столбцам:

Ветер - указаны скорость ветра в м/с - средняя за 10 мин, порывы в срок и между сроками (в фигурных скобках) и направление, откуда дует ветер: С - северный, СВ - северо-восточный, В - восточный, ЮВ - юго-восточный, Ю - южный, ЮЗ - юго-западный, З - западный, СЗ - северо-западный.
Видимость - горизонтальная дальность видимости в метрах или километрах. При видимости от 1 до 10 км при отсутствии осадков обычно наблюдается дымка, при ухудшении видимости до 1 км и менее - туман. В сухую погоду видимость может ухудшаться дымом, пылью или мглою.
Явления - указаны атмосферные явления, наблюдавшиеся в срок или в последний час перед сроком; фигурными скобками обозначены явления, наблюдавшиеся между сроками (за 1-3 часа до срока); квадратными скобками обозначены град или гололедные отложения с указанием их диаметра в мм.
Облачность - указаны через наклонную черту общая и нижняя облачность в баллах и высота нижней границы облаков в метрах; квадратными скобками обозначены формы облаков: Ci - перистые, Cs - перисто-слоистые, Cc - перисто-кучевые, Ac - высококучевые, As - высокослоистые, Sc - слоисто-кучевые, Ns - слоисто-дождевые, Cu - кучевые, Cb - кучево-дождевые. Подробнее классификацию облаков см. в Атласе облаков (PDF).
T - Температура воздуха - температура, измеренная на высоте 2 м над землей.
Td - Температура точки росы - температура, при понижении до которой содержащийся в воздухе водяной пар достигнет насыщения.
f - Относительная влажность воздуха - влажноcть воздуха, измеренная на высоте 2 м над землей.
Te - Эффективная температура - температура, которую ощущает одетый по сезону человек в тени. Характеристика душности погоды. При расчете учитывается влияние влажности воздуха и скорости ветра на теплоощущения человека.
Tes - Эффективная температура на солнце - температура, которую ощущает человек, с поправкой на солнечный нагрев. Характеристика знойности погоды. Зависит от высоты солнца над горизонтом, облачности и скорости ветра. Ночью, в пасмурную погоду, а также при ветре 12 м/с и более поправка равна нулю.
P - Атмосферное давление - приведенное к уровню моря атмосферное давление.
Po - Атмосферное давление - измеренное на уровне метеостанции атмосферное давление.
Tmin - Минимальная температура - минимум температуры воздуха на высоте 2 м над землей.
Tmax - Максимальная температура - максимум температуры воздуха на высоте 2 м над землей.
R - Количество осадков - Количество выпавших осадков за период времени, мм. При наведении курсора мыши на число - период времени, за который выпало указанное количество осадков.
R24 - Количество осадков - Количество выпавших осадков за 24 часа, мм.
S - Снежный покров - Высота снежного покрова, см. При наведении курсора мыши на число - состояние снежного покрова и степень покрытия местности в баллах.